145P/Shoemaker-Levy 5 (2026)

Japanese version
Home page
Updated on March 25, 2025

---------------------------------------------------------------------

* Profile

* Orbital Elements

Epoch 2026 Feb. 9.0 TT = JDT 2461080.5
T 2026 Jan. 31.94853 TT                                 MPCW
q   1.8896862            (2000.0)            P               Q
n   0.11746116     Peri.   10.42028     +0.79824650     -0.59585667
a   4.1292692      Node    26.76610     +0.53760362     +0.63886460
e   0.5423679      Incl.   11.27815     +0.27163371     +0.48662804
P   8.39
From 646 observations 1991 Sept. 17-2018 Jan. 23, mean residual 0".6.

* Finding Charts

* Magnitudes Graph

        m1 = 9.0 + 5 log d + 20.0 log r(t - 40)

---------------------------------------------------------------------

The orbital elements are published on M.P.E.C. 2018-B155.
The charts are made with StellaNavigator Ver.11 (AstroArts).
The magnitudes graphs are made with Comet for Windows.

---------------------------------------------------------------------

Copyright(C) Seiichi Yoshida (comet@aerith.net). All rights reserved.